Flag for Curaçao

Past Weather in 12°31'11.5"N, 70°02'36.3"W, Curaçao — Yesterday and Last 2 Weeks

Currently: 90 °F. Scattered clouds. (Weather station: Hato Airport - Curacao, Curaçao). See more current weather

Past Weather in 12°31'11.5"N, 70°02'36.3"W — Graph

°F

12°31'11.5"N, 70°02'36.3"W Temperature Yesterday

Maximum temperature yesterday: 90 °F (at 11:00 am)
Minimum temperature yesterday: 82 °F (at 12:00 am)
Average temperature yesterday: 85 °F

High & Low Weather Summary for the Past Weeks

 TemperatureHumidityPressure
High91 °F (May 18, 12:00 pm)100% (May 28, 10:16 am)30.01 "Hg (May 28, 10:16 am)
Low81 °F (May 16, 4:00 am)59% (May 25, 1:00 pm)29.74 "Hg (May 20, 5:00 pm)
Average85 °F80%29.88 "Hg
* Reported May 15 10:00 am — May 30 10:00 am, 12°31'11.5"N, 70°02'36.3"W. Weather by CustomWeather, © 2024

Note: Actual official high and low records may vary slightly from our data, if they occured in-between our weather recording intervals... More about our weather records

12°31'11.5"N, 70°02'36.3"W Weather History for the Previous 24 Hours

Scroll right to see more
 ConditionsComfort  
Time TempWeatherWind HumidityBarometerVisibility
10:00 am
Thu, May 30
88 °FScattered clouds.15 mph75%29.95 "HgN/A
9:00 am88 °FPassing clouds.15 mph75%29.92 "HgN/A
8:00 am86 °FPassing clouds.16 mph75%29.92 "HgN/A
7:00 am84 °FPassing clouds.13 mph79%29.92 "HgN/A
6:00 am82 °FPassing clouds.12 mph84%29.92 "HgN/A
5:00 am82 °FPassing clouds.13 mph84%29.89 "HgN/A
4:00 am82 °FPassing clouds.12 mph84%29.89 "HgN/A
3:00 am82 °FPassing clouds.15 mph84%29.89 "HgN/A
2:00 am82 °FPassing clouds.15 mph84%29.89 "HgN/A
1:00 am82 °FPassing clouds.10 mph84%29.92 "HgN/A
12:00 am82 °FPassing clouds.12 mph84%29.95 "HgN/A
11:00 pm
Wed, May 29
82 °FPassing clouds.14 mph84%29.95 "HgN/A
10:00 pm82 °FPassing clouds.12 mph84%29.95 "HgN/A
9:00 pm82 °FPassing clouds.12 mph84%29.92 "HgN/A
8:00 pm84 °FPassing clouds.14 mph79%29.92 "HgN/A
7:00 pm84 °FPassing clouds.13 mph79%29.89 "HgN/A
6:00 pm86 °FPassing clouds.15 mph75%29.86 "HgN/A
5:00 pm88 °FPassing clouds.16 mph70%29.89 "HgN/A
4:00 pm90 °FPassing clouds.17 mph67%29.89 "HgN/A
3:00 pm90 °FPassing clouds.16 mph67%29.89 "HgN/A
2:00 pm90 °FPassing clouds.16 mph67%29.92 "HgN/A
1:00 pm90 °FPassing clouds.17 mph71%29.95 "HgN/A
12:00 pm90 °FPassing clouds.17 mph67%29.95 "HgN/A
11:00 am90 °FPassing clouds.17 mph67%29.95 "HgN/A
Weather by CustomWeather, © 2024

See weather overview